AAL800 KSAF-KPHL

Flight info

Callsign AAL800
Flight time 3h 12m
Altitude 35000
Route TAFOY3 FTI MMB EOS MYERZ TIIDE HELUB/N0437F370 DEWAK JOOEY GVE PAATS4
Aircraft A21N/M-SDE2E3FGHIRWXY/LB1

Departure

Time 2026-05-04 22:13
Airport Santa Fe Municipal Airport (KSAF)

Arrival

Time 2026-05-05 01:26
Airport Philadelphia International Airport (KPHL)
Time Latitude Longitude Altitude Speed Heading
2026-05-04 22:04 35.61840 -106.08508 6318 ft 0 kts 125°
2026-05-04 22:06 35.61840 -106.08510 6318 ft 1 kts 125°
2026-05-04 22:06 35.61849 -106.08524 6319 ft 2 kts 134°
2026-05-04 22:07 35.61861 -106.08535 6319 ft 2 kts 155°
2026-05-04 22:07 35.61876 -106.08540 6320 ft 2 kts 174°
2026-05-04 22:07 35.61890 -106.08540 6320 ft 2 kts 193°
2026-05-04 22:07 35.61904 -106.08534 6320 ft 1 kts 211°
2026-05-04 22:08 35.61910 -106.08529 6321 ft 1 kts 218°
2026-05-04 22:08 35.61911 -106.08527 6321 ft 0 kts 217°
2026-05-04 22:09 35.61910 -106.08528 6320 ft 1 kts 217°
2026-05-04 22:09 35.61881 -106.08554 6319 ft 9 kts 214°
2026-05-04 22:10 35.61798 -106.08601 6316 ft 16 kts 176°
2026-05-04 22:10 35.61662 -106.08567 6311 ft 22 kts 189°
2026-05-04 22:10 35.61506 -106.08643 6306 ft 24 kts 201°
2026-05-04 22:10 35.61372 -106.08758 6300 ft 24 kts 251°
2026-05-04 22:11 35.61332 -106.08956 6298 ft 23 kts 254°
2026-05-04 22:11 35.61235 -106.09106 6294 ft 22 kts 219°
2026-05-04 22:11 35.61103 -106.09223 6290 ft 24 kts 216°
2026-05-04 22:11 35.60961 -106.09344 6286 ft 25 kts 216°
2026-05-04 22:12 35.60815 -106.09468 6283 ft 16 kts 216°
2026-05-04 22:12 35.60806 -106.09553 6282 ft 11 kts 301°
2026-05-04 22:12 35.60933 -106.09535 6284 ft 41 kts 35°
2026-05-04 22:12 35.61191 -106.09322 6292 ft 91 kts 36°
2026-05-04 22:13 35.61890 -106.08711 6318 ft 154 kts 37°
2026-05-04 22:13 35.62874 -106.07828 6512 ft 183 kts 29°
2026-05-04 22:13 35.63890 -106.07025 7199 ft 167 kts
2026-05-04 22:13 35.64941 -106.07159 7710 ft 150 kts 320°
2026-05-04 22:14 35.65435 -106.08193 8117 ft 147 kts 267°
2026-05-04 22:14 35.64983 -106.09337 8487 ft 166 kts 231°
2026-05-04 22:14 35.63904 -106.10088 8848 ft 197 kts 192°
2026-05-04 22:14 35.62470 -106.09848 9273 ft 223 kts 172°
2026-05-04 22:15 35.60922 -106.09279 9736 ft 241 kts 167°
2026-05-04 22:15 35.59244 -106.08607 10072 ft 268 kts 167°
2026-05-04 22:15 35.57406 -106.07865 10585 ft 283 kts 166°
2026-05-04 22:15 35.55501 -106.07059 10921 ft 302 kts 161°
2026-05-04 22:16 35.53712 -106.05527 11190 ft 328 kts 134°
2026-05-04 22:16 35.52459 -106.03075 11504 ft 348 kts 118°
2026-05-04 22:16 35.51384 -106.00364 11803 ft 366 kts 117°
2026-05-04 22:16 35.50247 -105.97473 12154 ft 381 kts 117°
2026-05-04 22:17 35.49073 -105.94547 12760 ft 387 kts 118°
2026-05-04 22:17 35.47892 -105.91556 13453 ft 390 kts 114°
2026-05-04 22:17 35.47328 -105.88335 14058 ft 396 kts 89°
2026-05-04 22:17 35.47818 -105.85022 14701 ft 396 kts 69°
2026-05-04 22:18 35.48779 -105.81895 15293 ft 399 kts 65°
2026-05-04 22:18 35.49805 -105.78673 15887 ft 404 kts 66°
2026-05-04 22:18 35.50755 -105.75448 16501 ft 408 kts 68°
2026-05-04 22:18 35.51659 -105.72126 17094 ft 412 kts 69°
2026-05-04 22:19 35.52522 -105.68775 17629 ft 417 kts 70°
2026-05-04 22:19 35.53359 -105.65399 18157 ft 421 kts 70°
2026-05-04 22:19 35.54203 -105.61941 18649 ft 426 kts 70°
2026-05-04 22:19 35.55053 -105.58425 19132 ft 432 kts 70°
2026-05-04 22:20 35.55914 -105.54860 19594 ft 437 kts 70°
2026-05-04 22:20 35.56776 -105.51268 20054 ft 443 kts 71°
2026-05-04 22:20 35.57643 -105.47634 20516 ft 447 kts 70°
2026-05-04 22:20 35.58518 -105.43980 20954 ft 452 kts 71°
2026-05-04 22:21 35.59405 -105.40270 21359 ft 458 kts 71°
2026-05-04 22:21 35.60302 -105.36507 21767 ft 463 kts 71°
2026-05-04 22:21 35.61205 -105.32709 22215 ft 467 kts 71°
2026-05-04 22:21 35.62130 -105.28823 22592 ft 472 kts 71°
2026-05-04 22:22 35.63052 -105.24951 23001 ft 476 kts 72°
2026-05-04 22:22 35.63976 -105.21045 23457 ft 479 kts 71°
2026-05-04 22:22 35.64898 -105.17133 23836 ft 483 kts 71°
2026-05-04 22:22 35.65779 -105.13113 24216 ft 488 kts 75°
2026-05-04 22:23 35.66485 -105.09045 24559 ft 493 kts 77°
2026-05-04 22:23 35.67128 -105.04885 24917 ft 497 kts 77°
2026-05-04 22:23 35.67754 -105.00708 25295 ft 500 kts 77°
2026-05-04 22:23 35.68378 -104.96531 25749 ft 500 kts 77°
2026-05-04 22:24 35.69008 -104.92335 26139 ft 503 kts 78°
2026-05-04 22:24 35.69649 -104.88070 26467 ft 506 kts 77°
2026-05-04 22:24 35.70286 -104.83823 26768 ft 510 kts 76°
2026-05-04 22:24 35.70935 -104.79511 27085 ft 513 kts 77°
2026-05-04 22:25 35.71588 -104.75189 27369 ft 517 kts 77°
2026-05-04 22:25 35.72236 -104.70862 27691 ft 519 kts 77°
2026-05-04 22:25 35.72897 -104.66459 27978 ft 523 kts 77°
2026-05-04 22:25 35.73553 -104.62067 28250 ft 527 kts 77°
2026-05-04 22:26 35.74210 -104.57652 28533 ft 530 kts 77°
2026-05-04 22:26 35.74876 -104.53166 28817 ft 532 kts 77°
2026-05-04 22:26 35.75532 -104.48714 29072 ft 535 kts 76°
2026-05-04 22:26 35.76204 -104.44166 29322 ft 539 kts 76°
2026-05-04 22:27 35.76873 -104.39635 29574 ft 541 kts 77°
2026-05-04 22:27 35.77543 -104.35083 29812 ft 545 kts 77°
2026-05-04 22:27 35.78217 -104.30475 30134 ft 545 kts 77°
2026-05-04 22:27 35.78889 -104.25873 30438 ft 546 kts 77°
2026-05-04 22:28 35.79557 -104.21285 30664 ft 547 kts 77°
2026-05-04 22:28 35.80228 -104.16663 30922 ft 549 kts 77°
2026-05-04 22:28 35.80886 -104.12100 31226 ft 548 kts 77°
2026-05-04 22:28 35.81558 -104.07444 31512 ft 548 kts 77°
2026-05-04 22:29 35.82221 -104.02872 31751 ft 550 kts 76°
2026-05-04 22:29 35.82889 -103.98219 32000 ft 551 kts 76°
2026-05-04 22:29 35.83558 -103.93568 32257 ft 551 kts 76°
2026-05-04 22:29 35.84216 -103.88966 32487 ft 553 kts 76°
2026-05-04 22:30 35.84883 -103.84251 32721 ft 553 kts 76°
2026-05-04 22:30 35.85537 -103.79651 32955 ft 554 kts 76°
2026-05-04 22:30 35.86207 -103.74933 33187 ft 554 kts 76°
2026-05-04 22:30 35.86863 -103.70315 33375 ft 556 kts 76°
2026-05-04 22:31 35.87530 -103.65562 33529 ft 559 kts 76°
2026-05-04 22:31 35.88192 -103.60845 33774 ft 560 kts 76°
2026-05-04 22:31 35.88844 -103.56164 34034 ft 560 kts 75°
2026-05-04 22:31 35.89510 -103.51384 34267 ft 561 kts 76°
2026-05-04 22:32 35.90167 -103.46693 34445 ft 562 kts 76°
2026-05-04 22:32 35.90830 -103.41920 34625 ft 564 kts 76°
2026-05-04 22:32 35.91485 -103.37151 34848 ft 564 kts 76°
2026-05-04 22:33 35.92797 -103.27631 34915 ft 566 kts 76°
2026-05-04 22:33 35.94109 -103.18053 34906 ft 566 kts 76°
2026-05-04 22:34 35.95404 -103.08520 34898 ft 566 kts 76°
2026-05-04 22:34 35.96693 -102.98976 34896 ft 566 kts 76°
2026-05-04 22:35 35.97982 -102.89381 34893 ft 567 kts 76°
2026-05-04 22:35 35.99252 -102.79845 34883 ft 565 kts 76°
2026-05-04 22:36 36.00528 -102.70252 34866 ft 566 kts 76°
2026-05-04 22:36 36.01794 -102.60654 34845 ft 565 kts 76°
2026-05-04 22:37 36.03039 -102.51114 34838 ft 565 kts 75°
2026-05-04 22:37 36.04283 -102.41559 34829 ft 564 kts 76°
2026-05-04 22:38 36.05510 -102.32085 34822 ft 563 kts 76°
2026-05-04 22:38 36.06739 -102.22512 34828 ft 564 kts 76°
2026-05-04 22:39 36.07959 -102.12963 34828 ft 563 kts 76°
2026-05-04 22:39 36.09170 -102.03419 34831 ft 563 kts 76°
2026-05-04 22:40 36.10369 -101.93910 34827 ft 564 kts 76°
2026-05-04 22:40 36.11567 -101.84329 34821 ft 563 kts 76°
2026-05-04 22:41 36.12749 -101.74795 34804 ft 563 kts 76°
2026-05-04 22:41 36.13931 -101.65246 34791 ft 565 kts 76°
2026-05-04 22:42 36.15102 -101.55656 34786 ft 564 kts 75°
2026-05-04 22:42 36.16273 -101.46085 34783 ft 564 kts 76°
2026-05-04 22:43 36.17427 -101.36517 34782 ft 564 kts 75°
2026-05-04 22:43 36.18584 -101.26934 34775 ft 566 kts 77°
2026-05-04 22:44 36.19732 -101.17304 34767 ft 566 kts 76°
2026-05-04 22:44 36.20868 -101.07689 34771 ft 566 kts 76°
2026-05-04 22:45 36.21999 -100.98079 34759 ft 566 kts 76°
2026-05-04 22:45 36.23679 -100.83674 34722 ft 566 kts 76°
2026-05-04 22:46 36.24792 -100.74028 34718 ft 566 kts 76°
2026-05-04 22:46 36.25892 -100.64425 34706 ft 566 kts 76°
2026-05-04 22:47 36.26998 -100.54739 34702 ft 566 kts 76°
2026-05-04 22:47 36.28090 -100.45107 34706 ft 567 kts 77°
2026-05-04 22:48 36.29174 -100.35429 34709 ft 567 kts 76°
2026-05-04 22:48 36.30251 -100.25762 34700 ft 568 kts 77°
2026-05-04 22:49 36.31319 -100.16082 34694 ft 568 kts 77°
2026-05-04 22:49 36.32382 -100.06397 34702 ft 568 kts 76°
2026-05-04 22:50 36.33387 -99.97168 34686 ft 568 kts 76°
2026-05-04 22:50 36.34434 -99.87508 34685 ft 568 kts 76°
2026-05-04 22:51 36.35524 -99.77858 34670 ft 567 kts 76°
2026-05-04 22:51 36.36627 -99.68215 34674 ft 564 kts 76°
2026-05-04 22:52 36.37720 -99.58611 34676 ft 564 kts 75°
2026-05-04 22:52 36.38804 -99.49005 34678 ft 565 kts 75°
2026-05-04 22:53 36.39869 -99.39384 34669 ft 563 kts 75°
2026-05-04 22:53 36.40929 -99.29757 34657 ft 563 kts 76°
2026-05-04 22:54 36.41988 -99.20152 34653 ft 564 kts 76°
2026-05-04 22:54 36.43028 -99.10566 34642 ft 562 kts 76°
2026-05-04 22:55 36.44066 -99.00935 34636 ft 562 kts 76°
2026-05-04 22:55 36.45096 -98.91316 34627 ft 561 kts 75°
2026-05-04 22:56 36.46112 -98.81765 34620 ft 561 kts 75°
2026-05-04 22:56 36.47125 -98.72180 34618 ft 561 kts 76°
2026-05-04 22:57 36.48130 -98.62625 34614 ft 564 kts 76°
2026-05-04 22:57 36.49131 -98.52944 34620 ft 565 kts 76°
2026-05-04 22:58 36.50112 -98.43354 34626 ft 564 kts 75°
2026-05-04 22:58 36.51105 -98.33669 34622 ft 564 kts 76°
2026-05-04 22:59 36.52086 -98.24018 34629 ft 567 kts 77°
2026-05-04 22:59 36.53052 -98.14291 34626 ft 565 kts 76°
2026-05-04 23:00 36.54014 -98.04656 34626 ft 565 kts 77°
2026-05-04 23:00 36.54975 -97.94968 34627 ft 567 kts 77°
2026-05-04 23:01 36.55926 -97.85265 34627 ft 567 kts 77°
2026-05-04 23:01 36.56856 -97.75613 34629 ft 564 kts 76°
2026-05-04 23:02 36.57793 -97.65936 34640 ft 565 kts 77°
2026-05-04 23:02 36.58720 -97.56244 34636 ft 566 kts 76°
2026-05-04 23:03 36.59636 -97.46590 34640 ft 567 kts 77°
2026-05-04 23:03 36.60543 -97.36852 34647 ft 565 kts 77°
2026-05-04 23:04 36.61443 -97.27182 34648 ft 566 kts 76°
2026-05-04 23:04 36.62339 -97.17455 34659 ft 566 kts 76°
2026-05-04 23:05 36.63229 -97.07757 34665 ft 566 kts 77°
2026-05-04 23:05 36.64105 -96.98048 34670 ft 566 kts 77°
2026-05-04 23:06 36.64967 -96.88383 34677 ft 566 kts 77°
2026-05-04 23:06 36.65828 -96.78656 34680 ft 565 kts 76°
2026-05-04 23:07 36.66682 -96.68959 34681 ft 565 kts 77°
2026-05-04 23:07 36.67524 -96.59293 34679 ft 564 kts 76°
2026-05-04 23:08 36.68366 -96.49575 34686 ft 565 kts 76°
2026-05-04 23:08 36.69197 -96.39876 34687 ft 567 kts 77°
2026-05-04 23:09 36.70021 -96.30133 34686 ft 566 kts 77°
2026-05-04 23:09 36.70828 -96.20436 34689 ft 564 kts 77°
2026-05-04 23:10 36.71648 -96.10693 34701 ft 569 kts 77°
2026-05-04 23:10 36.72440 -96.00938 34708 ft 565 kts 77°
2026-05-04 23:11 36.73235 -95.91202 34712 ft 565 kts 76°
2026-05-04 23:11 36.74023 -95.81497 34705 ft 566 kts 77°
2026-05-04 23:12 36.74789 -95.71801 34709 ft 564 kts 77°
2026-05-04 23:12 36.75555 -95.62093 34714 ft 564 kts 77°
2026-05-04 23:13 36.76305 -95.52411 34718 ft 563 kts 77°
2026-05-04 23:13 36.77062 -95.42693 34719 ft 563 kts 77°
2026-05-04 23:14 36.77799 -95.33002 34719 ft 562 kts 77°
2026-05-04 23:14 36.78532 -95.23309 34727 ft 562 kts 78°
2026-05-04 23:15 36.79262 -95.13599 34738 ft 564 kts 78°
2026-05-04 23:15 36.79963 -95.03969 34734 ft 560 kts 77°
2026-05-04 23:16 36.80676 -94.94300 34738 ft 562 kts 77°
2026-05-04 23:16 36.81379 -94.84589 34747 ft 561 kts 77°
2026-05-04 23:17 36.82064 -94.74970 34745 ft 560 kts 78°
2026-05-04 23:17 36.82749 -94.65287 34744 ft 562 kts 77°
2026-05-04 23:18 36.83418 -94.55627 34747 ft 559 kts 77°
2026-05-04 23:18 36.84089 -94.45991 34748 ft 561 kts 77°
2026-05-04 23:19 36.84993 -94.36362 34751 ft 557 kts 74°
2026-05-04 23:19 36.86057 -94.26868 34754 ft 555 kts 73°
2026-05-04 23:20 36.87126 -94.17265 34756 ft 554 kts 74°
2026-05-04 23:20 36.88164 -94.07774 34759 ft 558 kts 75°
2026-05-04 23:21 36.89181 -93.98195 34766 ft 555 kts 74°
2026-05-04 23:21 36.90188 -93.88689 34781 ft 551 kts 74°
2026-05-04 23:22 36.91199 -93.79184 34788 ft 552 kts 74°
2026-05-04 23:22 36.92189 -93.69781 34790 ft 550 kts 74°
2026-05-04 23:23 36.93175 -93.60335 34790 ft 551 kts 74°
2026-05-04 23:23 36.94136 -93.50906 34786 ft 548 kts 73°
2026-05-04 23:24 36.95099 -93.41507 34785 ft 545 kts 75°
2026-05-04 23:24 36.96059 -93.32079 34777 ft 545 kts 76°
2026-05-04 23:25 36.97002 -93.22690 34781 ft 544 kts 76°
2026-05-04 23:25 36.97941 -93.13274 34783 ft 543 kts 76°
2026-05-04 23:26 36.98868 -93.03919 34796 ft 545 kts 76°
2026-05-04 23:26 36.99780 -92.94602 34786 ft 541 kts 76°
2026-05-04 23:27 37.00685 -92.85300 34780 ft 538 kts 76°
2026-05-04 23:27 37.01584 -92.76024 34776 ft 539 kts 77°
2026-05-04 23:28 37.02462 -92.66751 34772 ft 535 kts 76°
2026-05-04 23:28 37.03349 -92.57471 34782 ft 537 kts 75°
2026-05-04 23:29 37.04216 -92.48244 34774 ft 533 kts 76°
2026-05-04 23:29 37.05076 -92.39077 34777 ft 532 kts 77°
2026-05-04 23:30 37.05933 -92.29878 34773 ft 534 kts 77°
2026-05-04 23:30 37.06770 -92.20708 34791 ft 531 kts 77°
2026-05-04 23:31 37.07613 -92.11505 34797 ft 531 kts 77°
2026-05-04 23:31 37.08427 -92.02410 34801 ft 529 kts 77°
2026-05-04 23:32 37.09249 -91.93218 34795 ft 530 kts 77°
2026-05-04 23:32 37.10055 -91.84100 34799 ft 528 kts 77°
2026-05-04 23:33 37.10859 -91.74985 34789 ft 528 kts 77°
2026-05-04 23:33 37.11648 -91.65877 34783 ft 526 kts 77°
2026-05-04 23:34 37.12438 -91.56780 34779 ft 527 kts 77°
2026-05-04 23:34 37.13212 -91.47681 34779 ft 526 kts 77°
2026-05-04 23:35 37.13977 -91.38619 34774 ft 523 kts 77°
2026-05-04 23:35 37.14741 -91.29546 34770 ft 524 kts 77°
2026-05-04 23:36 37.15492 -91.20512 34773 ft 521 kts 78°
2026-05-04 23:36 37.16235 -91.11510 34761 ft 521 kts 78°
2026-05-04 23:37 37.16972 -91.02477 34758 ft 521 kts 78°
2026-05-04 23:37 37.17696 -90.93514 34763 ft 519 kts 78°
2026-05-04 23:38 37.18417 -90.84511 34767 ft 519 kts 78°
2026-05-04 23:38 37.19127 -90.75571 34758 ft 517 kts 78°
2026-05-04 23:39 37.19839 -90.66586 34766 ft 515 kts 77°
2026-05-04 23:39 37.20784 -90.57742 34770 ft 510 kts 75°
2026-05-04 23:40 37.21771 -90.48983 34777 ft 508 kts 76°
2026-05-04 23:40 37.22738 -90.40279 34772 ft 507 kts 75°
2026-05-04 23:41 37.23694 -90.31513 34780 ft 505 kts 76°
2026-05-04 23:41 37.24636 -90.22842 34789 ft 505 kts 77°
2026-05-04 23:42 37.25568 -90.14155 34780 ft 502 kts 77°
2026-05-04 23:42 37.26496 -90.05512 34789 ft 500 kts 77°
2026-05-04 23:43 37.27405 -89.96912 34795 ft 497 kts 77°
2026-05-04 23:43 37.28305 -89.88339 34810 ft 497 kts 77°
2026-05-04 23:44 37.29203 -89.79768 34783 ft 496 kts 77°
2026-05-04 23:44 37.30101 -89.71139 34807 ft 497 kts 77°
2026-05-04 23:45 37.30983 -89.62591 34792 ft 497 kts 77°
2026-05-04 23:45 37.31862 -89.54015 34797 ft 497 kts 78°
2026-05-04 23:46 37.32736 -89.45377 34809 ft 497 kts 78°
2026-05-04 23:46 37.33599 -89.36823 34789 ft 497 kts 78°
2026-05-04 23:47 37.34459 -89.28231 34806 ft 497 kts 78°
2026-05-04 23:47 37.35315 -89.19606 34739 ft 497 kts 78°
2026-05-04 23:48 37.36171 -89.10958 34784 ft 499 kts 79°
2026-05-04 23:48 37.37013 -89.02358 34797 ft 498 kts 79°
2026-05-04 23:49 37.37849 -88.93722 34806 ft 498 kts 79°
2026-05-04 23:49 37.38678 -88.85101 34804 ft 497 kts 79°
2026-05-04 23:50 37.39501 -88.76515 34804 ft 497 kts 79°
2026-05-04 23:50 37.40315 -88.67914 34808 ft 497 kts 79°
2026-05-04 23:51 37.41129 -88.59288 34814 ft 497 kts 79°
2026-05-04 23:51 37.41931 -88.50685 34823 ft 498 kts 79°
2026-05-04 23:52 37.42730 -88.42027 34820 ft 498 kts 79°
2026-05-04 23:52 37.43524 -88.33390 34815 ft 497 kts 80°
2026-05-04 23:53 37.44307 -88.24800 34819 ft 497 kts 80°
2026-05-04 23:53 37.45090 -88.16129 34819 ft 498 kts 80°
2026-05-04 23:54 37.45861 -88.07526 34828 ft 496 kts 80°
2026-05-04 23:54 37.46626 -87.98915 34822 ft 496 kts 80°
2026-05-04 23:55 37.47398 -87.90323 34816 ft 496 kts 80°
2026-05-04 23:56 37.48553 -87.77427 34806 ft 495 kts 80°
2026-05-04 23:56 37.49318 -87.68829 34815 ft 495 kts 80°
2026-05-04 23:57 37.50069 -87.60284 34807 ft 496 kts 80°
2026-05-04 23:57 37.50819 -87.51650 34805 ft 497 kts 80°
2026-05-04 23:58 37.51563 -87.43009 34804 ft 497 kts 80°
2026-05-04 23:58 37.52304 -87.34361 34806 ft 497 kts 81°
2026-05-04 23:59 37.53037 -87.25700 34809 ft 498 kts 81°
2026-05-04 23:59 37.53762 -87.17063 34813 ft 497 kts 81°
2026-05-05 00:00 37.54479 -87.08447 34814 ft 497 kts 81°
2026-05-05 00:00 37.55196 -86.99774 34813 ft 497 kts 81°
2026-05-05 00:01 37.55897 -86.91177 34821 ft 496 kts 82°
2026-05-05 00:01 37.56596 -86.82546 34817 ft 495 kts 82°
2026-05-05 00:02 37.57285 -86.73947 34814 ft 494 kts 81°
2026-05-05 00:02 37.57974 -86.65307 34825 ft 494 kts 82°
2026-05-05 00:03 37.58647 -86.56758 34831 ft 494 kts 82°
2026-05-05 00:03 37.59320 -86.48141 34842 ft 493 kts 82°
2026-05-05 00:04 37.59982 -86.39575 34844 ft 494 kts 82°
2026-05-05 00:04 37.60645 -86.30941 34844 ft 493 kts 83°
2026-05-05 00:05 37.61292 -86.22382 34854 ft 493 kts 83°
2026-05-05 00:05 37.62043 -86.12386 34858 ft 491 kts 83°
2026-05-05 00:06 37.62571 -86.05265 34859 ft 490 kts 83°
2026-05-05 00:06 37.63202 -85.96689 34865 ft 490 kts 83°
2026-05-05 00:07 37.63826 -85.88139 34871 ft 489 kts 83°
2026-05-05 00:07 37.64442 -85.79605 34864 ft 489 kts 83°
2026-05-05 00:08 37.65046 -85.71124 34864 ft 489 kts 83°
2026-05-05 00:08 37.65653 -85.62526 34862 ft 489 kts 83°
2026-05-05 00:09 37.66246 -85.54036 34863 ft 488 kts 83°
2026-05-05 00:09 37.66839 -85.45487 34849 ft 487 kts 83°
2026-05-05 00:10 37.67421 -85.37004 34852 ft 486 kts 83°
2026-05-05 00:10 37.67999 -85.28472 34857 ft 488 kts 84°
2026-05-05 00:11 37.68566 -85.20001 34851 ft 487 kts 84°
2026-05-05 00:11 37.69133 -85.11451 34865 ft 487 kts 84°
2026-05-05 00:12 37.69687 -85.02988 34856 ft 488 kts 84°
2026-05-05 00:12 37.70240 -84.94456 34861 ft 487 kts 84°
2026-05-05 00:13 37.70784 -84.85973 34864 ft 487 kts 84°
2026-05-05 00:13 37.71321 -84.77462 34879 ft 487 kts 84°
2026-05-05 00:14 37.71810 -84.68908 34883 ft 487 kts 85°
2026-05-05 00:14 37.72199 -84.60382 34881 ft 487 kts 85°
2026-05-05 00:15 37.72583 -84.51854 34875 ft 486 kts 85°
2026-05-05 00:15 37.72968 -84.43361 34881 ft 486 kts 85°
2026-05-05 00:16 37.73347 -84.34905 34890 ft 486 kts 86°
2026-05-05 00:16 37.73725 -84.26358 34898 ft 486 kts 86°
2026-05-05 00:17 37.74095 -84.17822 34890 ft 486 kts 86°
2026-05-05 00:17 37.74462 -84.09274 34892 ft 486 kts 86°
2026-05-05 00:18 37.74816 -84.00799 34886 ft 486 kts 86°
2026-05-05 00:18 37.75168 -83.92281 34879 ft 486 kts 86°
2026-05-05 00:19 37.75515 -83.83728 34880 ft 486 kts 86°
2026-05-05 00:19 37.75853 -83.75246 34874 ft 486 kts 86°
2026-05-05 00:20 37.76186 -83.66734 34878 ft 486 kts 86°
2026-05-05 00:20 37.76513 -83.58214 34885 ft 486 kts 86°
2026-05-05 00:21 37.76834 -83.49694 34888 ft 486 kts 86°
2026-05-05 00:21 37.77036 -83.44233 34888 ft 486 kts 86°
2026-05-05 00:22 37.77159 -83.40856 34887 ft 486 kts 86°
2026-05-05 00:22 37.77420 -83.33639 34890 ft 486 kts 87°
2026-05-05 00:23 37.77776 -83.24560 34887 ft 487 kts 84°
2026-05-05 00:23 37.78492 -83.15570 34890 ft 488 kts 83°
2026-05-05 00:24 37.79251 -83.06584 34894 ft 488 kts 83°
2026-05-05 00:24 37.79979 -82.97778 34900 ft 488 kts 83°
2026-05-05 00:25 37.80701 -82.88924 34895 ft 487 kts 83°
2026-05-05 00:25 37.81412 -82.80114 34896 ft 487 kts 83°
2026-05-05 00:26 37.82108 -82.71370 34896 ft 487 kts 83°
2026-05-05 00:26 37.82814 -82.62418 34898 ft 487 kts 83°
2026-05-05 00:27 37.83546 -82.53050 34908 ft 486 kts 83°
2026-05-05 00:27 37.84274 -82.43621 34904 ft 485 kts 83°
2026-05-05 00:28 37.84986 -82.34331 34906 ft 485 kts 83°
2026-05-05 00:28 37.85662 -82.25436 34909 ft 486 kts 84°
2026-05-05 00:29 37.86382 -82.15826 34907 ft 486 kts 83°
2026-05-05 00:29 37.87075 -82.06458 34895 ft 484 kts 83°
2026-05-05 00:30 37.87761 -81.97097 34893 ft 484 kts 83°
2026-05-05 00:30 37.88421 -81.87987 34906 ft 483 kts 83°
2026-05-05 00:31 37.89072 -81.78921 34921 ft 484 kts 83°
2026-05-05 00:31 37.89731 -81.69651 34924 ft 485 kts 83°
2026-05-05 00:32 37.90375 -81.60445 34927 ft 485 kts 83°
2026-05-05 00:32 37.91010 -81.51291 34929 ft 486 kts 83°
2026-05-05 00:33 37.91642 -81.42085 34944 ft 486 kts 83°
2026-05-05 00:33 37.92262 -81.32938 34946 ft 485 kts 84°
2026-05-05 00:34 37.92881 -81.23706 34960 ft 485 kts 83°
2026-05-05 00:34 37.93498 -81.14374 34963 ft 486 kts 84°
2026-05-05 00:35 37.94111 -81.05016 34954 ft 486 kts 83°
2026-05-05 00:35 37.94712 -80.95707 34946 ft 488 kts 83°
2026-05-05 00:36 37.95290 -80.86633 34947 ft 487 kts 83°
2026-05-05 00:36 37.95844 -80.77882 34954 ft 486 kts 83°
2026-05-05 00:37 37.96410 -80.68823 34965 ft 485 kts 84°
2026-05-05 00:37 37.96965 -80.59769 34966 ft 485 kts 83°
2026-05-05 00:38 37.97525 -80.50539 34967 ft 485 kts 83°
2026-05-05 00:38 37.98072 -80.41416 34969 ft 485 kts 83°
2026-05-05 00:39 37.98613 -80.32265 34973 ft 485 kts 84°
2026-05-05 00:39 37.99135 -80.23315 34985 ft 484 kts 84°
2026-05-05 00:40 37.99658 -80.14224 34987 ft 484 kts 84°
2026-05-05 00:40 38.00182 -80.04967 34999 ft 483 kts 84°
2026-05-05 00:41 38.00622 -79.95742 35008 ft 484 kts 87°
2026-05-05 00:41 38.00740 -79.86706 35005 ft 484 kts 88°
2026-05-05 00:42 38.00826 -79.77502 35000 ft 484 kts 88°
2026-05-05 00:42 38.00910 -79.68389 34981 ft 484 kts 87°
2026-05-05 00:43 38.00993 -79.59256 34955 ft 484 kts 88°
2026-05-05 00:43 38.01071 -79.49934 34941 ft 483 kts 87°
2026-05-05 00:44 38.01143 -79.40449 34939 ft 484 kts 87°
2026-05-05 00:44 38.01205 -79.31314 34944 ft 483 kts 88°
2026-05-05 00:45 38.01257 -79.22502 34957 ft 483 kts 88°
2026-05-05 00:45 38.01301 -79.13689 34953 ft 482 kts 88°
2026-05-05 00:46 38.01344 -79.04598 34954 ft 483 kts 88°
2026-05-05 00:46 38.01376 -78.95612 34951 ft 483 kts 88°
2026-05-05 00:47 38.01403 -78.86591 34951 ft 483 kts 88°
2026-05-05 00:47 38.01422 -78.77871 34947 ft 483 kts 88°
2026-05-05 00:48 38.01432 -78.68894 34944 ft 482 kts 88°
2026-05-05 00:48 38.01440 -78.60104 34943 ft 482 kts 88°
2026-05-05 00:49 38.01440 -78.51011 34942 ft 481 kts 88°
2026-05-05 00:49 38.01431 -78.42314 34938 ft 481 kts 88°
2026-05-05 00:50 38.01415 -78.33435 34935 ft 480 kts 89°
2026-05-05 00:50 38.01471 -78.24836 34936 ft 479 kts 84°
2026-05-05 00:51 38.02562 -78.16348 34931 ft 475 kts 72°
2026-05-05 00:51 38.05061 -78.08139 34923 ft 470 kts 59°
2026-05-05 00:52 38.08736 -78.00429 34928 ft 468 kts 53°
2026-05-05 00:52 38.12412 -77.93185 34919 ft 467 kts 53°
2026-05-05 00:53 38.15967 -77.86106 34919 ft 466 kts 54°
2026-05-05 00:53 38.19458 -77.79105 34920 ft 466 kts 54°
2026-05-05 00:54 38.22912 -77.72154 34925 ft 464 kts 54°
2026-05-05 00:54 38.26368 -77.65176 34921 ft 465 kts 54°
2026-05-05 00:55 38.29834 -77.58164 34925 ft 465 kts 54°
2026-05-05 00:55 38.33284 -77.51166 34928 ft 465 kts 54°
2026-05-05 00:56 38.36736 -77.44147 34924 ft 464 kts 54°
2026-05-05 00:56 38.40363 -77.36759 34916 ft 464 kts 54°
2026-05-05 00:57 38.43903 -77.29545 34917 ft 464 kts 55°
2026-05-05 00:57 38.47324 -77.22550 34916 ft 465 kts 55°
2026-05-05 00:58 38.50743 -77.15537 34917 ft 465 kts 55°
2026-05-05 00:58 38.54147 -77.08534 34918 ft 464 kts 55°
2026-05-05 00:59 38.57555 -77.01509 34909 ft 464 kts 55°
2026-05-05 00:59 38.60940 -76.94518 34910 ft 464 kts 55°
2026-05-05 01:00 38.64342 -76.87471 34911 ft 464 kts 55°
2026-05-05 01:00 38.67665 -76.80427 34911 ft 464 kts 58°
2026-05-05 01:01 38.70470 -76.72975 34921 ft 467 kts 65°
2026-05-05 01:01 38.72567 -76.65119 34916 ft 469 kts 72°
2026-05-05 01:02 38.74256 -76.57028 34911 ft 470 kts 72°
2026-05-05 01:02 38.75924 -76.48928 34910 ft 469 kts 72°
2026-05-05 01:03 38.77588 -76.40874 34860 ft 466 kts 72°
2026-05-05 01:03 38.78416 -76.36861 34523 ft 463 kts 72°
2026-05-05 01:03 38.79238 -76.32873 33949 ft 462 kts 73°
2026-05-05 01:03 38.80054 -76.28919 33410 ft 460 kts 73°
2026-05-05 01:04 38.80870 -76.24959 32880 ft 457 kts 73°
2026-05-05 01:04 38.82484 -76.17104 31651 ft 457 kts 73°
2026-05-05 01:04 38.83296 -76.13134 30997 ft 457 kts 73°
2026-05-05 01:05 38.84098 -76.09203 30278 ft 457 kts 74°
2026-05-05 01:05 38.84909 -76.05214 29607 ft 454 kts 74°
2026-05-05 01:05 38.85714 -76.01249 29064 ft 449 kts 74°
2026-05-05 01:05 38.86496 -75.97382 28512 ft 444 kts 74°
2026-05-05 01:06 38.87267 -75.93547 27911 ft 441 kts 74°
2026-05-05 01:06 38.88036 -75.89727 27295 ft 438 kts 73°
2026-05-05 01:06 38.89057 -75.86098 26690 ft 433 kts 62°
2026-05-05 01:06 38.90679 -75.82912 26111 ft 425 kts 48°
2026-05-05 01:07 38.92801 -75.80293 25533 ft 418 kts 36°
2026-05-05 01:07 38.95132 -75.78072 24982 ft 414 kts 33°
2026-05-05 01:07 38.97465 -75.75929 24408 ft 411 kts 33°
2026-05-05 01:07 38.99793 -75.73776 23842 ft 409 kts 33°
2026-05-05 01:08 39.02091 -75.71626 23296 ft 406 kts 33°
2026-05-05 01:08 39.04422 -75.69591 22724 ft 401 kts 26°
2026-05-05 01:08 39.07008 -75.68142 22149 ft 394 kts 14°
2026-05-05 01:08 39.09637 -75.67397 21641 ft 387 kts
2026-05-05 01:09 39.12337 -75.67061 21113 ft 384 kts
2026-05-05 01:09 39.14991 -75.66798 20577 ft 381 kts
2026-05-05 01:09 39.17632 -75.66538 20061 ft 379 kts
2026-05-05 01:09 39.20276 -75.66264 19531 ft 377 kts
2026-05-05 01:10 39.22897 -75.65984 19018 ft 374 kts
2026-05-05 01:10 39.25480 -75.65689 18519 ft 373 kts
2026-05-05 01:10 39.28004 -75.64980 17995 ft 375 kts 14°
2026-05-05 01:10 39.30418 -75.63635 17510 ft 377 kts 25°
2026-05-05 01:11 39.32629 -75.61842 17038 ft 376 kts 30°
2026-05-05 01:11 39.34800 -75.59918 16548 ft 373 kts 31°
2026-05-05 01:11 39.36917 -75.57970 16060 ft 373 kts 36°
2026-05-05 01:11 39.38718 -75.55547 15562 ft 375 kts 50°
2026-05-05 01:12 39.40018 -75.52631 15083 ft 376 kts 64°
2026-05-05 01:12 39.40989 -75.49480 14616 ft 374 kts 67°
2026-05-05 01:12 39.41890 -75.46330 14222 ft 370 kts 67°
2026-05-05 01:12 39.42787 -75.43205 13975 ft 371 kts 67°
2026-05-05 01:13 39.43697 -75.40100 13727 ft 371 kts 66°
2026-05-05 01:13 39.44627 -75.36968 13479 ft 369 kts 66°
2026-05-05 01:13 39.45561 -75.33888 13233 ft 367 kts 64°
2026-05-05 01:13 39.46867 -75.31106 12862 ft 358 kts 47°
2026-05-05 01:14 39.48651 -75.28956 12381 ft 350 kts 32°
2026-05-05 01:14 39.50663 -75.27213 11914 ft 346 kts 28°
2026-05-05 01:14 39.52726 -75.25507 11440 ft 343 kts 28°
2026-05-05 01:14 39.54715 -75.23857 10985 ft 341 kts 28°
2026-05-05 01:15 39.56721 -75.22175 10512 ft 339 kts 29°
2026-05-05 01:15 39.58698 -75.20503 10060 ft 336 kts 29°
2026-05-05 01:15 39.60667 -75.18825 9584 ft 333 kts 29°
2026-05-05 01:15 39.62592 -75.17178 9321 ft 324 kts 29°
2026-05-05 01:16 39.64436 -75.15595 9139 ft 314 kts 29°
2026-05-05 01:16 39.66218 -75.14061 8816 ft 298 kts 29°
2026-05-05 01:16 39.67922 -75.12598 8288 ft 291 kts 29°
2026-05-05 01:16 39.69620 -75.11147 7574 ft 291 kts 30°
2026-05-05 01:17 39.71297 -75.09713 6854 ft 292 kts 31°
2026-05-05 01:17 39.72941 -75.08109 6157 ft 293 kts 38°
2026-05-05 01:17 39.74424 -75.06278 5424 ft 293 kts 45°
2026-05-05 01:17 39.75809 -75.04331 4725 ft 292 kts 47°
2026-05-05 01:18 39.77146 -75.02399 4214 ft 289 kts 47°
2026-05-05 01:18 39.78535 -75.00470 3974 ft 291 kts 44°
2026-05-05 01:18 39.80151 -74.98894 3717 ft 288 kts 20°
2026-05-05 01:18 39.82081 -74.98337 3254 ft 280 kts 355°
2026-05-05 01:19 39.83980 -74.98566 2699 ft 273 kts 347°
2026-05-05 01:19 39.85875 -74.98987 2191 ft 266 kts 346°
2026-05-05 01:19 39.87659 -74.99427 1992 ft 254 kts 346°
2026-05-05 01:19 39.89475 -74.99506 1960 ft 247 kts 11°
2026-05-05 01:20 39.91093 -74.98805 1975 ft 239 kts 16°
2026-05-05 01:20 39.92663 -74.98618 2028 ft 216 kts 345°
2026-05-05 01:20 39.93856 -74.99436 2015 ft 174 kts 305°
2026-05-05 01:20 39.94231 -75.00684 1929 ft 134 kts 255°
2026-05-05 01:21 39.93850 -75.01809 2004 ft 139 kts 231°
2026-05-05 01:21 39.93230 -75.02824 2010 ft 142 kts 226°
2026-05-05 01:21 39.92576 -75.03827 2005 ft 143 kts 226°
2026-05-05 01:21 39.91913 -75.04836 2000 ft 143 kts 226°
2026-05-05 01:22 39.91269 -75.05870 1996 ft 144 kts 232°
2026-05-05 01:22 39.90781 -75.07037 1992 ft 144 kts 240°
2026-05-05 01:22 39.90408 -75.08285 1988 ft 143 kts 245°
2026-05-05 01:22 39.90102 -75.09541 1953 ft 143 kts 248°
2026-05-05 01:23 39.89835 -75.10785 1779 ft 142 kts 249°
2026-05-05 01:23 39.89582 -75.12032 1587 ft 142 kts 249°
2026-05-05 01:23 39.89329 -75.13294 1399 ft 141 kts 250°
2026-05-05 01:23 39.89079 -75.14545 1215 ft 141 kts 250°
2026-05-05 01:24 39.88832 -75.15778 1035 ft 140 kts 250°
2026-05-05 01:24 39.88584 -75.17018 851 ft 140 kts 251°
2026-05-05 01:24 39.88339 -75.18238 670 ft 140 kts 251°
2026-05-05 01:24 39.88091 -75.19475 483 ft 139 kts 251°
2026-05-05 01:25 39.87849 -75.20693 295 ft 139 kts 252°
2026-05-05 01:25 39.87606 -75.21891 95 ft 136 kts 252°
2026-05-05 01:25 39.87368 -75.23061 18 ft 125 kts 253°
2026-05-05 01:25 39.87189 -75.23942 17 ft 75 kts 256°
2026-05-05 01:26 39.87097 -75.24419 18 ft 42 kts 256°
2026-05-05 01:26 39.87025 -75.24741 19 ft 33 kts 257°
2026-05-05 01:26 39.87009 -75.24993 21 ft 23 kts 273°
2026-05-05 01:26 39.87082 -75.25067 21 ft 15 kts 44°
2026-05-05 01:27 39.87114 -75.24929 20 ft 16 kts 77°
2026-05-05 01:27 39.87140 -75.24780 19 ft 16 kts 74°
2026-05-05 01:27 39.87173 -75.24626 18 ft 17 kts 76°
2026-05-05 01:27 39.87203 -75.24536 18 ft 6 kts 28°
2026-05-05 01:28 39.87233 -75.24532 18 ft 5 kts 354°
2026-05-05 01:28 39.87282 -75.24519 18 ft 9 kts 26°
2026-05-05 01:28 39.87321 -75.24489 18 ft 0 kts 30°
2026-05-05 01:28 39.87326 -75.24490 17 ft 1 kts 328°
2026-05-05 01:29 39.87337 -75.24502 17 ft 1 kts 348°
2026-05-05 01:29 39.87346 -75.24493 17 ft 0 kts 49°
2026-05-05 01:29 39.87347 -75.24492 17 ft 0 kts 49°